GFSNGP_850_rhum_228.txt.gz
RH
63 64 65 72 79 81 83 78 97 76 63 49 46 44 36 29 20 20 21 23 30 38 40 41 55 68 77 76 86 95 91 100 95 97 99 98 98 99 99 99 95 71 68 68
98 84 83 94 83 79 79 77 69 65 70 48 44 33 26 21 20 22 25 32 39 40 41 51 70 80 68 77 87 96 94 97 96 91 88 97 99 95 98 93 92 84 77 73
93 78 90 98 83 67 56 54 72 88 67 49 44 24 18 22 23 26 33 41 47 50 54 65 77 85 80 82 86 96 100 100 98 91 84 96 98 100 99 96 96 99 100 96
97 100 96 45 28 29 35 35 31 33 30 25 20 18 22 24 27 31 42 49 55 61 68 73 76 86 85 82 84 97 99 98 89 79 76 86 90 89 94 93 97 100 99 95
99 98 66 53 35 34 36 35 25 32 26 20 17 24 25 27 30 42 48 56 62 64 67 69 70 76 80 80 82 89 89 78 82 93 85 90 74 77 95 96 100 100 100 100
100 96 86 42 28 21 20 39 31 51 37 34 40 63 48 34 43 45 47 54 58 65 67 60 57 63 75 77 74 78 82 79 80 87 76 75 95 100 100 99 100 100 100 100
97 97 75 35 26 26 51 57 39 35 32 36 51 47 44 40 41 42 63 66 61 62 55 50 53 60 71 72 64 66 75 82 84 90 97 86 100 100 100 100 100 100 100 99
92 97 92 30 36 53 51 41 38 31 27 28 29 30 33 36 39 44 50 52 52 47 45 45 52 57 62 64 59 60 68 76 81 85 95 100 96 100 100 100 100 100 98 98
67 68 36 31 38 36 31 33 33 34 38 40 37 33 31 36 41 42 46 50 50 45 44 44 47 53 57 59 60 61 65 69 73 82 87 88 100 100 100 100 100 99 99 99
47 26 26 26 24 26 28 29 27 25 26 29 31 31 33 37 40 46 52 57 56 53 51 48 43 48 54 59 61 61 64 65 71 80 86 65 74 95 100 100 100 100 100 100
55 40 30 28 26 27 26 26 27 28 29 29 29 30 34 36 53 61 62 64 66 65 60 53 44 46 50 59 62 66 68 71 74 84 70 62 69 94 100 100 100 100 100 100
60 31 34 30 30 33 34 35 35 36 37 36 34 36 42 61 64 62 66 72 71 72 65 56 45 45 51 60 62 72 76 76 79 83 81 95 68 33 62 95 90 96 100 100
24 29 30 34 36 38 37 36 36 37 39 42 59 75 84 88 93 91 84 80 77 92 94 72 66 58 56 65 70 78 79 83 89 80 95 90 99 98 72 33 46 67 90 99
32 35 42 42 42 39 42 50 56 56 56 64 73 89 100 100 94 90 95 96 99 80 91 97 90 85 86 86 90 87 91 90 90 98 96 86 98 100 100 100 100 85 76 100
45 46 47 50 52 51 54 58 62 69 77 94 98 99 100 97 99 100 92 88 95 98 98 98 98 99 95 96 97 95 95 95 96 95 84 90 87 93 100 100 99 100 100 99
51 56 66 72 78 90 93 98 99 99 98 98 98 97 96 85 88 85 98 90 99 98 94 95 94 96 96 96 96 96 95 96 96 94 88 90 95 88 90 100 100 99 99 99
81 94 100 99 99 100 100 100 98 96 96 96 96 94 96 86 79 85 94 92 83 74 61 79 92 93 96 94 95 95 94 95 90 88 92 92 84 95 98 80 92 87 97 94
89 90 94 98 96 96 97 96 94 83 97 94 86 77 87 94 96 97 95 84 79 69 92 86 94 99 97 96 96 96 96 96 93 92 94 92 89 90 82 88 87 82 87 87
90 90 89 86 79 79 79 75 74 80 83 79 72 72 73 70 83 87 89 72 82 92 96 97 86 84 87 96 94 93 95 96 93 92 92 90 90 83 81 80 80 83 87 85
84 78 79 78 76 72 75 72 78 94 86 77 76 83 70 70 67 71 78 67 74 83 91 96 90 94 93 96 98 98 97 94 87 88 89 86 78 80 79 76 77 77 80 87
62 66 75 79 74 64 63 59 80 73 62 69 69 68 64 72 78 77 66 77 80 84 90 92 93 94 99 96 90 91 92 95 96 96 87 75 80 93 87 75 78 82 78 81
58 60 56 62 60 58 56 57 68 57 63 61 66 67 78 78 74 80 85 86 92 93 94 91 94 95 89 85 82 79 80 83 84 85 89 97 94 94 96 90 76 77 84 84
60 59 58 59 59 60 54 56 58 61 61 64 65 69 82 86 95 96 97 97 93 90 92 86 87 90 94 94 89 88 85 87 85 84 85 85 85 89 94 99 95 80 73 83
63 61 60 60 60 56 57 61 64 65 66 69 75 85 96 93 88 88 89 88 90 90 86 88 91 90 91 87 87 91 94 97 98 97 97 97 94 91 91 96 98 97 98 82
65 60 61 62 58 60 61 65 69 73 80 84 90 98 100 94 95 93 90 90 92 94 96 91 93 97 98 96 96 96 95 93 92 95 89 87 88 83 82 80 77 75 74 94
61 62 65 62 61 63 67 80 86 91 94 96 98 92 92 93 91 91 94 97 95 94 93 93 98 100 96 99 98 92 94 92 95 93 94 93 90 92 92 89 91 94 93 94
62 62 70 64 66 70 84 96 100 100 100 98 94 95 95 95 95 99 100 99 97 96 96 95 96 97 99 100 98 100 98 97 96 94 94 93 93 93 94 94 91 85 83 81

GFSNGP_850_rhum_231.txt.gz
RH
81 75 75 81 80 80 83 75 97 82 76 59 54 75 86 89 77 21 22 24 34 40 44 48 52 58 64 66 66 69 64 61 69 95 99 97 99 99 98 99 98 97 98 92
100 78 77 84 77 75 74 75 76 79 85 59 58 52 34 31 22 23 25 32 41 47 51 53 57 61 61 58 64 60 76 59 67 87 96 93 90 92 92 94 89 83 91 99
86 73 93 94 68 59 68 66 74 93 73 57 58 51 27 24 23 27 29 34 46 52 55 57 57 64 61 58 67 66 70 65 64 68 76 74 75 69 85 94 91 80 100 99
95 93 93 52 30 32 52 47 50 43 38 26 26 23 24 24 25 26 28 44 50 54 57 59 63 67 63 68 70 67 72 76 77 68 78 77 64 77 89 100 91 86 100 100
97 89 77 62 41 36 39 40 46 40 37 34 27 24 27 28 32 43 45 46 47 54 59 62 61 56 64 69 68 70 74 75 76 62 62 86 83 98 100 99 93 95 100 100
99 98 90 49 28 22 26 54 48 50 56 49 36 69 63 30 31 37 41 43 50 55 58 53 49 59 63 64 62 64 71 71 62 70 68 71 82 99 99 100 100 100 100 100
96 98 94 42 30 30 66 71 38 31 31 31 52 42 32 32 32 37 40 42 47 49 46 52 54 59 56 58 60 58 64 59 66 75 78 78 95 100 98 95 100 99 98 99
98 98 95 34 39 57 59 44 40 34 32 34 35 32 30 32 32 36 39 42 43 51 50 50 54 56 54 56 57 61 60 60 60 72 75 82 97 96 100 99 100 99 93 86
86 93 46 35 41 35 35 36 32 30 30 34 35 36 37 39 34 33 34 38 49 52 53 55 68 82 53 52 56 58 61 61 64 67 72 74 82 76 100 99 100 100 100 100
68 55 39 29 27 28 32 35 33 30 31 31 33 34 32 32 33 44 54 56 58 57 53 50 60 70 51 50 54 59 62 62 65 68 73 79 73 67 89 99 98 100 100 100
69 44 35 33 32 33 33 34 35 35 35 37 39 49 64 65 68 71 73 76 81 87 75 68 68 69 75 56 49 56 62 63 63 69 76 71 87 98 89 64 100 100 100 99
78 43 46 39 36 37 39 41 49 55 58 65 76 83 87 90 88 92 92 92 94 86 96 99 93 85 85 54 54 58 62 63 63 70 77 81 100 99 74 78 90 100 100 100
38 35 37 39 42 53 58 65 71 77 89 96 96 100 100 100 98 98 88 78 79 73 71 90 95 99 88 94 72 64 66 72 74 77 77 100 98 86 92 78 100 94 100 100
40 43 51 62 85 74 71 72 70 76 94 99 100 95 96 95 88 80 90 83 70 62 62 77 85 80 94 98 98 96 84 83 82 86 94 97 96 89 90 95 96 91 98 100
59 70 83 79 66 72 74 70 75 97 96 86 85 86 93 96 89 88 88 95 98 82 64 60 61 76 96 93 93 96 96 96 96 95 93 95 95 96 97 98 99 91 95 95
73 72 74 80 92 96 93 97 88 93 94 94 75 57 59 74 88 96 97 89 72 64 67 72 92 100 92 97 99 96 97 97 96 94 93 96 96 97 94 96 98 78 90 90
67 91 93 93 88 83 86 89 78 78 89 75 54 55 58 56 71 74 65 74 69 80 92 98 98 92 91 90 95 96 96 97 97 96 96 96 97 96 93 91 82 82 83 78
88 87 86 80 77 78 78 77 66 93 80 65 60 61 69 62 57 61 68 70 58 54 78 86 93 89 78 83 84 91 92 93 94 97 96 96 97 98 94 87 79 75 74 71
82 77 67 70 74 67 74 68 77 78 66 58 60 61 64 64 67 72 75 66 66 89 95 96 94 88 91 100 94 93 97 97 97 97 95 87 83 90 89 80 82 82 71 65
79 78 72 72 61 69 58 60 66 76 58 60 60 61 67 73 70 74 79 88 96 99 99 92 90 88 93 93 91 93 86 82 84 89 91 91 89 82 74 63 68 85 83 71
68 68 59 62 57 58 56 57 60 59 59 61 63 68 76 78 87 92 93 96 98 95 90 83 81 89 97 93 88 85 84 82 81 82 84 85 81 76 79 88 87 84 90 91
61 58 62 58 56 48 56 56 58 60 64 65 70 78 85 90 93 90 87 97 93 91 96 93 92 94 95 92 87 82 82 85 90 90 88 85 84 82 81 78 79 80 79 83
61 60 58 49 45 55 57 59 62 65 69 74 81 85 89 92 84 92 100 96 100 99 91 95 98 100 99 98 96 97 95 96 95 94 94 94 95 95 97 97 96 95 93 96
58 49 46 44 50 60 62 64 65 73 81 83 82 90 88 92 98 100 98 95 85 86 87 91 94 97 98 94 100 100 100 100 100 100 100 98 97 96 94 94 90 82 82 79
45 51 48 50 61 63 63 65 70 84 86 84 93 85 93 96 97 94 88 83 87 91 88 88 93 98 98 100 100 100 95 92 95 100 100 98 97 97 96 94 95 95 92 92
33 43 50 58 62 64 65 67 78 85 90 97 87 91 96 93 92 91 83 82 87 93 90 93 100 100 100 100 100 100 99 98 100 99 100 99 98 98 97 97 97 96 96 90
48 57 55 67 68 70 67 78 90 87 97 97 88 98 95 93 91 90 83 85 91 95 92 95 95 100 98 100 100 100 100 100 99 98 97 100 99 100 100 100 100 99 97 97

GFSNGP_850_rhum_234.txt.gz
RH
80 72 76 80 83 83 86 75 88 64 67 58 53 66 73 66 82 89 70 24 28 32 36 39 43 48 52 56 55 51 50 52 60 63 74 82 87 88 86 87 93 100 99 100
99 86 86 91 80 77 79 76 77 76 79 54 52 56 85 92 95 82 41 25 30 35 38 41 45 50 55 52 52 56 58 56 55 50 58 56 60 62 65 88 99 100 100 100
87 80 84 96 84 71 59 64 69 81 62 47 51 57 45 37 54 28 24 28 34 37 45 47 51 53 48 55 57 58 59 56 52 53 48 52 52 66 82 80 97 100 100 100
96 92 95 58 40 35 52 52 37 38 30 28 28 28 26 24 24 25 26 27 34 48 50 48 48 49 52 51 57 59 59 54 54 62 58 49 44 49 65 100 100 98 100 100
98 96 77 59 42 38 41 47 46 50 43 39 30 27 30 32 32 35 42 44 45 44 43 45 52 52 55 54 57 62 60 58 55 66 60 54 58 62 77 88 91 99 100 100
99 98 88 56 28 26 33 64 46 44 46 40 39 65 52 28 33 33 30 34 38 40 44 48 49 46 48 55 60 61 61 56 55 62 59 52 70 81 100 100 100 100 100 100
98 98 95 51 29 37 90 76 39 30 29 30 46 38 30 30 29 29 32 32 37 42 44 46 50 49 50 55 59 59 60 57 52 60 60 54 66 81 82 96 100 100 93 86
99 99 93 34 40 66 64 44 39 36 32 32 34 34 34 35 36 34 35 36 34 39 42 47 53 55 57 59 58 61 64 59 58 60 61 57 65 73 79 72 100 100 99 88
90 87 63 41 48 64 38 37 40 40 36 36 37 43 54 55 56 62 64 64 62 63 64 65 67 84 84 85 68 72 70 63 61 62 62 62 67 71 72 54 98 100 100 100
98 91 63 50 48 34 34 35 41 52 59 67 78 85 88 88 89 89 91 93 96 95 88 92 93 77 84 96 97 66 63 60 62 62 61 64 65 67 67 89 77 97 100 100
99 76 63 50 38 38 52 57 61 69 74 83 84 98 100 100 99 99 99 91 93 95 89 76 71 94 93 94 98 97 93 68 62 63 63 62 62 66 76 90 85 99 99 100
94 55 60 67 69 60 61 78 82 76 86 100 100 100 100 100 96 87 83 85 81 82 88 69 73 90 84 95 91 95 95 77 73 67 65 65 72 77 89 90 78 100 100 100
47 48 70 82 75 74 71 76 74 74 89 100 100 82 82 90 76 73 90 93 100 99 79 65 62 69 90 95 100 97 94 91 97 98 87 83 77 91 91 82 82 95 96 89
52 53 73 70 94 81 72 77 75 78 84 80 67 49 45 50 66 96 100 92 78 64 60 62 93 97 83 82 88 98 99 97 96 96 97 96 97 97 96 92 96 95 94 92
62 59 75 85 80 72 61 56 48 57 69 66 47 38 43 51 53 61 58 56 60 62 68 93 96 88 83 76 81 90 96 98 97 97 97 96 97 96 96 99 96 98 95 89
78 73 73 66 65 59 53 56 59 76 76 60 49 49 56 55 51 52 53 59 62 57 66 89 94 94 90 82 83 78 75 83 94 95 96 96 96 97 97 96 98 98 94 89
66 75 65 63 64 69 69 69 59 82 66 55 55 54 58 55 60 61 64 66 67 80 96 100 100 94 90 96 93 97 92 90 89 87 94 97 96 96 96 97 96 97 89 76
58 61 56 46 60 70 70 51 61 72 61 59 60 61 64 68 70 73 80 83 82 89 91 90 92 88 83 84 88 86 88 89 86 89 95 96 98 96 94 94 94 93 78 96
62 48 39 49 49 55 46 54 76 74 59 61 63 65 70 72 79 84 85 84 89 100 92 89 80 75 77 94 100 96 89 82 78 77 76 73 75 81 82 79 76 70 63 57
58 54 47 42 42 48 58 63 74 60 61 63 66 68 73 80 84 83 75 87 100 100 96 89 78 98 98 99 100 99 90 93 87 84 88 88 92 85 80 75 72 70 66 67
68 55 42 44 57 58 57 60 61 61 63 63 68 73 80 82 80 76 86 100 100 98 77 67 72 95 91 98 98 97 100 99 99 98 96 96 95 90 88 83 80 78 79 75
62 45 50 54 58 58 60 61 61 60 59 65 74 80 80 74 74 77 97 100 83 79 78 74 78 86 89 88 91 100 98 97 98 98 99 98 98 95 89 87 90 98 100 98
49 44 54 57 55 59 61 58 55 54 62 76 80 76 74 85 98 100 86 76 77 82 81 79 81 87 91 90 94 100 100 100 95 91 92 94 92 94 95 96 94 93 91 88
48 56 53 51 58 56 48 51 52 55 66 70 78 76 82 93 84 87 89 79 76 80 76 79 80 80 86 91 99 100 100 100 100 100 100 100 98 99 100 98 97 93 92 96
46 52 53 50 47 45 46 47 49 52 57 69 77 78 87 91 94 86 80 75 75 75 73 78 80 85 89 92 93 99 100 100 100 100 100 99 99 100 100 100 99 98 98 97
57 56 46 44 43 45 48 48 43 51 59 68 75 86 88 91 88 78 74 72 72 71 76 79 84 87 93 95 94 100 100 100 100 100 100 99 96 99 99 100 97 98 100 100
55 46 40 40 45 50 51 43 44 53 68 82 84 87 93 90 82 75 72 69 65 61 67 80 85 87 95 96 98 100 100 100 100 100 100 100 100 98 94 96 98 100 99 97

GFSNGP_850_rhum_237.txt.gz
RH
89 71 74 71 74 76 87 76 91 69 67 56 52 58 58 58 56 48 56 66 70 86 75 31 28 35 40 41 43 50 51 52 52 50 51 53 54 60 86 88 78 72 78 78
100 97 90 93 88 84 80 78 78 73 76 56 53 54 63 68 76 85 86 92 93 58 29 28 36 42 46 46 44 52 55 51 51 47 46 49 50 52 55 74 86 82 83 81
89 80 84 93 92 81 66 62 68 80 61 29 36 38 38 62 77 93 91 62 29 29 33 36 39 42 46 46 51 52 55 56 59 58 54 55 51 46 49 61 79 86 91 76
97 92 96 60 51 48 59 60 44 36 32 33 32 29 26 26 26 26 28 29 29 31 32 36 44 44 42 48 54 54 51 54 58 60 58 64 59 49 50 53 76 91 94 98
100 95 78 71 56 49 59 54 45 44 42 40 32 28 28 30 27 26 26 27 29 30 36 39 40 42 45 53 55 59 55 54 55 60 58 60 61 54 50 48 54 88 100 100
99 99 94 59 28 28 37 71 41 45 39 30 35 63 46 30 32 36 39 40 44 42 37 36 38 42 48 55 56 57 57 58 60 63 61 57 58 57 54 54 49 59 100 100
96 98 97 66 28 46 82 71 41 34 32 33 53 39 41 46 45 48 54 51 48 45 49 62 71 72 74 76 78 80 74 70 63 69 64 57 60 59 58 60 62 68 90 100
99 99 95 37 41 65 66 44 40 40 40 40 44 52 60 66 71 76 76 72 70 73 80 88 88 94 94 95 89 83 87 93 77 71 65 61 62 60 63 68 66 53 65 100
92 89 55 62 74 67 61 55 43 42 48 50 68 88 96 99 98 100 99 87 82 81 85 91 81 78 80 91 89 89 84 89 96 97 96 78 63 62 67 71 69 50 35 96
96 95 69 77 84 45 44 51 60 67 76 81 100 100 99 98 96 88 84 76 72 75 78 79 68 62 81 79 60 61 79 89 86 92 98 98 66 68 71 70 66 70 59 64
99 97 95 83 60 57 71 75 78 88 95 100 100 99 98 100 91 75 74 89 91 95 87 78 66 63 85 81 82 96 94 84 81 97 100 96 97 98 86 72 69 78 79 86
95 80 94 92 91 81 76 82 84 80 86 82 71 70 62 52 55 91 96 90 78 74 66 64 72 86 75 67 68 76 85 99 97 95 99 98 97 97 96 97 94 83 83 99
63 85 91 97 88 78 66 70 70 63 65 57 43 32 32 35 39 42 44 51 56 58 59 69 78 80 76 74 69 66 75 93 96 96 97 97 97 97 96 96 95 95 98 96
57 71 95 84 89 78 67 65 54 45 43 37 36 32 29 32 39 48 46 47 49 49 50 62 87 99 90 81 77 72 64 62 72 92 96 96 97 97 97 97 96 96 97 96
77 63 65 78 73 65 53 41 33 43 47 37 28 22 28 37 40 45 50 54 55 62 75 86 90 94 91 90 85 80 77 75 79 78 83 93 94 95 96 96 96 97 97 98
71 69 74 68 62 52 36 33 33 52 35 23 29 40 45 50 56 62 66 68 76 80 83 87 88 83 78 73 71 90 91 79 73 74 78 96 99 98 96 96 96 96 97 96
77 85 72 68 52 43 34 30 40 31 34 46 55 53 57 64 66 66 65 69 73 77 87 83 70 60 58 65 78 100 100 93 84 78 72 71 77 88 96 95 95 95 96 96
57 56 50 31 25 29 37 36 31 49 55 58 59 64 69 72 71 72 67 58 60 74 69 64 61 57 58 79 96 98 100 99 92 88 94 86 77 79 78 75 80 85 89 91
50 33 20 17 22 31 26 32 61 59 58 62 67 70 72 73 74 67 56 56 57 65 63 65 63 61 64 65 69 71 74 97 98 98 96 97 96 93 97 94 85 75 68 65
30 19 17 25 32 24 38 62 63 57 61 62 69 68 67 70 63 54 53 55 69 71 67 67 67 69 72 73 75 78 84 100 98 95 96 98 97 97 96 95 91 90 86 79
26 22 24 25 28 46 56 56 60 63 62 64 63 61 65 56 52 55 53 58 62 64 66 68 70 73 76 75 76 78 85 94 99 100 100 99 99 100 99 97 96 96 96 97
30 27 22 28 46 55 56 59 63 60 59 58 56 57 54 48 49 52 62 72 66 68 67 70 71 75 78 79 79 84 88 94 98 100 100 99 98 99 94 91 87 83 92 96
36 25 26 40 47 50 58 62 61 57 53 48 49 50 50 58 62 64 58 61 64 66 69 71 73 76 78 82 87 91 92 95 100 100 100 100 100 100 100 100 100 100 96 94
32 39 37 42 46 55 61 56 54 49 48 49 50 51 55 56 60 69 69 66 66 66 65 65 73 77 82 85 92 94 96 100 100 100 100 100 100 100 96 100 100 100 100 100
42 38 34 33 48 58 54 52 51 47 46 50 54 57 67 68 70 70 65 64 63 53 41 39 55 76 82 89 95 94 100 100 100 100 100 100 100 98 96 100 97 100 100 96
38 27 29 36 46 51 54 54 45 41 44 50 52 58 62 67 71 72 66 65 58 45 36 37 42 60 82 92 94 95 100 100 100 100 100 100 100 100 100 96 93 94 99 100
31 38 38 46 57 58 59 49 39 40 45 46 49 58 62 68 72 70 67 64 56 38 33 38 41 44 62 91 95 95 100 100 100 100 100 100 100 100 100 99 97 92 86 85